Yunyao-1 60

operational
NORAD ID: 63296 Int'l Des: NNA 2025-055 Owner: YYAO Country: CN
LEOCIRCULARRETROGRADESSO

About Yunyao-1 60

Description loading...

Live Position

Loading 3D Globe...

Upcoming Passes

Altitude History

Altitude vs Time

uPlot chart will show altitude changes over time

Two-Line Element Set

1 63296U 25055F 25315.34540340 .00015942 00000-0 93755-3 0 9995
2 63296 97.6296 89.2952 0013549 154.7764 205.4130 15.11669404 36032
Epoch: Nov 11, 2025 • Age: 12 hours

Current Status

Altitude 535.8 km
Velocity 7.60 km/s
Sub-Earth Point 67.67°N, 61.01°W
Launch Date Mar 17, 2025
Age 0.6 years
Type other

Technical Details

Classification Payload
Mass 50.00 kg
Dry Mass 50.00 kg
Total Mass 50.00 kg
Length 2.00 m
Diameter 1.50 m
Span 5.00 m
Shape Box + pan
Manufacturer CGSTL
Bus Type YY-1
Phase Status In Orbit
Owner/State YYAO/CN

Large Constellations

Loading constellations...